Simultaneous Nadir Overpasses (SNOs) Predictions

Prediction of SNOs between GOES-14 and NOAA-20 Satellite Orbit:

Table of predicted SNOs for the next 14.0 days since TLE Epoch: 5/15/2020
Index Date Time (GOES-14) GOES-14 Lat,Lon NOAA-20 Lat,Lon Distance(km) Time Diff (sec)
1 05/16/2020 20:23:56 -0.08,-104.24 -0.08,-104.36 13.02 80
2 05/19/2020 08:24:18 0.07,-104.14 0.27,-105.09 108.46 80
3 05/20/2020 08:08:12 0.08,-104.14 -0.71,-100.55 408.98 80
4 05/21/2020 20:30:10 -0.05,-104.27 -0.40,-105.87 183.16 80
5 05/22/2020 20:08:44 -0.07,-104.26 0.58,-101.34 333.25 80
6 05/24/2020 08:30:32 0.04,-104.14 0.59,-106.61 281.28 80
7 05/25/2020 08:14:26 0.05,-104.14 -0.39,-102.07 235.83 80
8 05/26/2020 20:36:23 -0.02,-104.27 -0.72,-107.39 355.22 80
9 05/27/2020 20:14:58 -0.04,-104.27 0.26,-102.85 161.07 80
10 05/29/2020 08:36:45 0.01,-104.13 0.91,-108.12 455.30 80




NCC Satellite Simultaneous Nadir Overpasses (SNOs) Prediction Service
